owner,sensor,date,latitude,longitude,vertical_datum,wind_speed,wind_to_direction,wind_speed_of_gust,qcFlag 
TCOON,ioos:station:TCOON:068:1,2017-01-01T00:00:00Z,27.2970,-97.4049,0.0,1.7,88.0,2.0,'11111222,11111222,11111222' 
TCOON,ioos:station:TCOON:068:1,2017-01-01T00:06:00Z,27.2970,-97.4049,0.0,1.4,82.0,1.7,'11111222,11111222,11111222' 
TCOON,ioos:station:TCOON:068:1,2017-01-01T00:12:00Z,27.2970,-97.4049,0.0,1.6,87.0,1.7,'11111222,11111222,11111222' 
TCOON,ioos:station:TCOON:068:1,2017-01-01T00:18:00Z,27.2970,-97.4049,0.0,1.5,93.0,1.7,'11111222,11111222,11111222' 
TCOON,ioos:station:TCOON:068:1,2017-01-01T00:24:00Z,27.2970,-97.4049,0.0,1.5,93.0,1.7,'1111122,1111122,1111122' 
TCOON,ioos:station:TCOON:068:1,2017-01-01T00:30:00Z,27.2970,-97.4049,0.0,2.4,96.0,2.6,'11111222,11111222,11111222' 
TCOON,ioos:station:TCOON:068:1,2017-01-01T00:36:00Z,27.2970,-97.4049,0.0,2.8,104.0,3.1,'11111222,11111222,11111222' 
TCOON,ioos:station:TCOON:068:1,2017-01-01T00:42:00Z,27.2970,-97.4049,0.0,3.0,93.0,3.6,'11111222,11111222,11111222' 
TCOON,ioos:station:TCOON:068:1,2017-01-01T00:48:00Z,27.2970,-97.4049,0.0,2.7,92.0,3.1,'11111222,11111222,11111222' 
TCOON,ioos:station:TCOON:068:1,2017-01-01T00:54:00Z,27.2970,-97.4049,0.0,2.7,96.0,2.9,'11111222,11111222,11111222' 
TCOON,ioos:station:TCOON:068:1,2017-01-01T01:00:00Z,27.2970,-97.4049,0.0,2.7,110.0,3.1,'11111222,11111222,11111222' 
TCOON,ioos:station:TCOON:068:1,2017-01-01T01:06:00Z,27.2970,-97.4049,0.0,2.3,101.0,3.1,'11111222,11111222,11111222' 
TCOON,ioos:station:TCOON:068:1,2017-01-01T01:12:00Z,27.2970,-97.4049,0.0,1.9,92.0,2.5,'11111222,11111222,11111222' 
TCOON,ioos:station:TCOON:068:1,2017-01-01T01:18:00Z,27.2970,-97.4049,0.0,1.9,92.0,2.5,'1111122,1111122,1111122' 
TCOON,ioos:station:TCOON:068:1,2017-01-01T01:24:00Z,27.2970,-97.4049,0.0,1.3,93.0,1.7,'11111222,11111222,11111222' 
TCOON,ioos:station:TCOON:068:1,2017-01-01T01:30:00Z,27.2970,-97.4049,0.0,1.3,82.0,1.4,'11111222,11111222,11111222' 
TCOON,ioos:station:TCOON:068:1,2017-01-01T01:36:00Z,27.2970,-97.4049,0.0,0.9,82.0,1.4,'11111222,11111222,11111222' 
TCOON,ioos:station:TCOON:068:1,2017-01-01T01:42:00Z,27.2970,-97.4049,0.0,1.1,69.0,1.2,'11111222,11111222,11111222' 
TCOON,ioos:station:TCOON:068:1,2017-01-01T01:48:00Z,27.2970,-97.4049,0.0,0.9,61.0,1.2,'11111222,11111222,11111222' 
TCOON,ioos:station:TCOON:068:1,2017-01-01T01:54:00Z,27.2970,-97.4049,0.0,0.9,65.0,1.1,'11111222,11111222,11111222' 
TCOON,ioos:station:TCOON:068:1,2017-01-01T02:00:00Z,27.2970,-97.4049,0.0,1.4,70.0,1.4,'11111222,11111222,11111222' 
TCOON,ioos:station:TCOON:068:1,2017-01-01T02:06:00Z,27.2970,-97.4049,0.0,1.6,85.0,1.6,'11111222,11111222,11111222' 
TCOON,ioos:station:TCOON:068:1,2017-01-01T02:12:00Z,27.2970,-97.4049,0.0,1.8,89.0,1.9,'11111222,11111222,11111222' 
TCOON,ioos:station:TCOON:068:1,2017-01-01T02:18:00Z,27.2970,-97.4049,0.0,1.8,89.0,1.9,'1111122,1111122,1111122' 
TCOON,ioos:station:TCOON:068:1,2017-01-01T02:24:00Z,27.2970,-97.4049,0.0,1.5,69.0,1.7,'11111222,11111222,11111222' 
TCOON,ioos:station:TCOON:068:1,2017-01-01T02:30:00Z,27.2970,-97.4049,0.0,1.6,70.0,1.8,'11111222,11111222,11111222' 
TCOON,ioos:station:TCOON:068:1,2017-01-01T02:36:00Z,27.2970,-97.4049,0.0,1.5,68.0,1.8,'11111222,11111222,11111222' 
TCOON,ioos:station:TCOON:068:1,2017-01-01T02:42:00Z,27.2970,-97.4049,0.0,2.0,78.0,2.2,'11111222,11111222,11111222' 
TCOON,ioos:station:TCOON:068:1,2017-01-01T02:48:00Z,27.2970,-97.4049,0.0,2.1,86.0,2.3,'11111222,11111222,11111222' 
TCOON,ioos:station:TCOON:068:1,2017-01-01T02:54:00Z,27.2970,-97.4049,0.0,2.1,89.0,2.3,'11111222,11111222,11111222' 
TCOON,ioos:station:TCOON:068:1,2017-01-01T03:00:00Z,27.2970,-97.4049,0.0,2.0,91.0,2.1,'11111222,11111222,11111222' 
TCOON,ioos:station:TCOON:068:1,2017-01-01T03:06:00Z,27.2970,-97.4049,0.0,1.9,90.0,2.2,'11111222,11111222,11111222' 
TCOON,ioos:station:TCOON:068:1,2017-01-01T03:12:00Z,27.2970,-97.4049,0.0,2.0,79.0,2.2,'11111222,11111222,11111222' 
TCOON,ioos:station:TCOON:068:1,2017-01-01T03:18:00Z,27.2970,-97.4049,0.0,2.0,79.0,2.2,'1111122,1111122,1111122' 
TCOON,ioos:station:TCOON:068:1,2017-01-01T03:24:00Z,27.2970,-97.4049,0.0,2.5,83.0,2.7,'11111222,11111222,11111222' 
TCOON,ioos:station:TCOON:068:1,2017-01-01T03:30:00Z,27.2970,-97.4049,0.0,2.7,81.0,3.0,'11111222,11111222,11111222' 
TCOON,ioos:station:TCOON:068:1,2017-01-01T03:36:00Z,27.2970,-97.4049,0.0,3.1,75.0,3.4,'11111222,11111222,11111222' 
TCOON,ioos:station:TCOON:068:1,2017-01-01T03:42:00Z,27.2970,-97.4049,0.0,3.3,79.0,3.7,'11111222,11111222,11111222' 
TCOON,ioos:station:TCOON:068:1,2017-01-01T03:48:00Z,27.2970,-97.4049,0.0,2.5,83.0,3.6,'11111222,11111222,11111222' 
TCOON,ioos:station:TCOON:068:1,2017-01-01T03:54:00Z,27.2970,-97.4049,0.0,2.3,71.0,2.9,'11111222,11111222,11111222' 
TCOON,ioos:station:TCOON:068:1,2017-01-01T04:00:00Z,27.2970,-97.4049,0.0,2.4,75.0,2.7,'11111222,11111222,11111222' 
TCOON,ioos:station:TCOON:068:1,2017-01-01T04:06:00Z,27.2970,-97.4049,0.0,1.9,71.0,2.6,'11111222,11111222,11111222' 
TCOON,ioos:station:TCOON:068:1,2017-01-01T04:12:00Z,27.2970,-97.4049,0.0,2.1,66.0,2.3,'11111222,11111222,11111222' 
TCOON,ioos:station:TCOON:068:1,2017-01-01T04:18:00Z,27.2970,-97.4049,0.0,2.1,63.0,2.3,'11111222,11111222,11111222' 
TCOON,ioos:station:TCOON:068:1,2017-01-01T04:24:00Z,27.2970,-97.4049,0.0,1.9,62.0,2.2,'11111222,11111222,11111222' 
TCOON,ioos:station:TCOON:068:1,2017-01-01T04:30:00Z,27.2970,-97.4049,0.0,1.9,62.0,2.2,'1111122,1111122,1111122' 
TCOON,ioos:station:TCOON:068:1,2017-01-01T04:36:00Z,27.2970,-97.4049,0.0,2.1,55.0,2.3,'11111222,11111222,11111222' 
TCOON,ioos:station:TCOON:068:1,2017-01-01T04:42:00Z,27.2970,-97.4049,0.0,2.1,57.0,2.4,'11111222,11111222,11111222' 
TCOON,ioos:station:TCOON:068:1,2017-01-01T04:48:00Z,27.2970,-97.4049,0.0,2.1,53.0,2.4,'11111222,11111222,11111222' 
TCOON,ioos:station:TCOON:068:1,2017-01-01T04:54:00Z,27.2970,-97.4049,0.0,2.2,57.0,2.4,'11111222,11111222,11111222' 
TCOON,ioos:station:TCOON:068:1,2017-01-01T05:00:00Z,27.2970,-97.4049,0.0,2.3,54.0,2.7,'11111222,11111222,11111222' 
TCOON,ioos:station:TCOON:068:1,2017-01-01T05:06:00Z,27.2970,-97.4049,0.0,2.1,56.0,2.5,'11111222,11111222,11111222' 
TCOON,ioos:station:TCOON:068:1,2017-01-01T05:12:00Z,27.2970,-97.4049,0.0,2.3,65.0,2.6,'11111222,11111222,11111222' 
TCOON,ioos:station:TCOON:068:1,2017-01-01T05:18:00Z,27.2970,-97.4049,0.0,2.7,78.0,3.5,'11111222,11111222,11111222' 
TCOON,ioos:station:TCOON:068:1,2017-01-01T05:24:00Z,27.2970,-97.4049,0.0,2.7,78.0,3.5,'1111122,1111122,1111122' 
TCOON,ioos:station:TCOON:068:1,2017-01-01T05:30:00Z,27.2970,-97.4049,0.0,3.1,79.0,3.7,'11111222,11111222,11111222' 
TCOON,ioos:station:TCOON:068:1,2017-01-01T05:36:00Z,27.2970,-97.4049,0.0,3.4,81.0,4.3,'11111222,11111222,11111222' 
TCOON,ioos:station:TCOON:068:1,2017-01-01T05:42:00Z,27.2970,-97.4049,0.0,1.8,125.0,4.4,'11111222,11111222,11111222' 
TCOON,ioos:station:TCOON:068:1,2017-01-01T05:48:00Z,27.2970,-97.4049,0.0,3.3,86.0,4.0,'11111222,11111222,11111222' 
TCOON,ioos:station:TCOON:068:1,2017-01-01T05:54:00Z,27.2970,-97.4049,0.0,3.5,82.0,4.2,'11111222,11111222,11111222' 
TCOON,ioos:station:TCOON:068:1,2017-01-01T06:00:00Z,27.2970,-97.4049,0.0,2.9,84.0,3.5,'11111222,11111222,11111222' 
TCOON,ioos:station:TCOON:068:1,2017-01-01T06:06:00Z,27.2970,-97.4049,0.0,3.0,98.0,3.4,'11111222,11111222,11111222' 
TCOON,ioos:station:TCOON:068:1,2017-01-01T06:12:00Z,27.2970,-97.4049,0.0,3.0,106.0,3.4,'11111222,11111222,11111222' 
TCOON,ioos:station:TCOON:068:1,2017-01-01T06:18:00Z,27.2970,-97.4049,0.0,3.0,106.0,3.4,'1111122,1111122,1111122' 
TCOON,ioos:station:TCOON:068:1,2017-01-01T06:24:00Z,27.2970,-97.4049,0.0,2.3,109.0,2.6,'11111222,11111222,11111222' 
TCOON,ioos:station:TCOON:068:1,2017-01-01T06:30:00Z,27.2970,-97.4049,0.0,2.3,110.0,2.8,'11111222,11111222,11111222' 
TCOON,ioos:station:TCOON:068:1,2017-01-01T06:36:00Z,27.2970,-97.4049,0.0,2.8,118.0,3.3,'11111222,11111222,11111222' 
TCOON,ioos:station:TCOON:068:1,2017-01-01T06:42:00Z,27.2970,-97.4049,0.0,2.4,131.0,3.3,'11111222,11111222,11111222' 
TCOON,ioos:station:TCOON:068:1,2017-01-01T06:48:00Z,27.2970,-97.4049,0.0,2.1,128.0,2.6,'11111222,11111222,11111222' 
TCOON,ioos:station:TCOON:068:1,2017-01-01T06:54:00Z,27.2970,-97.4049,0.0,3.0,127.0,3.5,'11111222,11111222,11111222' 
TCOON,ioos:station:TCOON:068:1,2017-01-01T07:00:00Z,27.2970,-97.4049,0.0,2.3,136.0,3.6,'11111222,11111222,11111222' 
TCOON,ioos:station:TCOON:068:1,2017-01-01T07:06:00Z,27.2970,-97.4049,0.0,2.7,140.0,3.0,'11111222,11111222,11111222' 
TCOON,ioos:station:TCOON:068:1,2017-01-01T07:12:00Z,27.2970,-97.4049,0.0,2.9,146.0,3.4,'11111222,11111222,11111222' 
TCOON,ioos:station:TCOON:068:1,2017-01-01T07:18:00Z,27.2970,-97.4049,0.0,2.9,146.0,3.4,'1111122,1111122,1111122' 
TCOON,ioos:station:TCOON:068:1,2017-01-01T07:24:00Z,27.2970,-97.4049,0.0,2.6,152.0,3.2,'11111222,11111222,11111222' 
TCOON,ioos:station:TCOON:068:1,2017-01-01T07:30:00Z,27.2970,-97.4049,0.0,2.7,169.0,3.3,'11111222,11111222,11111222' 
TCOON,ioos:station:TCOON:068:1,2017-01-01T07:36:00Z,27.2970,-97.4049,0.0,2.6,172.0,3.4,'11111222,11111222,11111222' 
TCOON,ioos:station:TCOON:068:1,2017-01-01T07:42:00Z,27.2970,-97.4049,0.0,3.3,192.0,3.5,'11111222,11111222,11111222' 
TCOON,ioos:station:TCOON:068:1,2017-01-01T07:48:00Z,27.2970,-97.4049,0.0,3.6,202.0,3.8,'11111222,11111222,11111222' 
TCOON,ioos:station:TCOON:068:1,2017-01-01T07:54:00Z,27.2970,-97.4049,0.0,3.4,200.0,3.9,'11111222,11111222,11111222' 
TCOON,ioos:station:TCOON:068:1,2017-01-01T08:00:00Z,27.2970,-97.4049,0.0,2.5,200.0,3.5,'11111222,11111222,11111222' 
TCOON,ioos:station:TCOON:068:1,2017-01-01T08:06:00Z,27.2970,-97.4049,0.0,3.2,206.0,3.5,'11111222,11111222,11111222' 
TCOON,ioos:station:TCOON:068:1,2017-01-01T08:12:00Z,27.2970,-97.4049,0.0,2.9,191.0,3.8,'11111222,11111222,11111222' 
TCOON,ioos:station:TCOON:068:1,2017-01-01T08:18:00Z,27.2970,-97.4049,0.0,2.9,191.0,3.8,'1111122,1111122,1111122' 
TCOON,ioos:station:TCOON:068:1,2017-01-01T08:24:00Z,27.2970,-97.4049,0.0,3.1,188.0,3.4,'11111222,11111222,11111222' 
TCOON,ioos:station:TCOON:068:1,2017-01-01T08:30:00Z,27.2970,-97.4049,0.0,2.6,190.0,3.2,'11111222,11111222,11111222' 
TCOON,ioos:station:TCOON:068:1,2017-01-01T08:36:00Z,27.2970,-97.4049,0.0,3.4,196.0,3.8,'11111222,11111222,11111222' 
TCOON,ioos:station:TCOON:068:1,2017-01-01T08:42:00Z,27.2970,-97.4049,0.0,3.1,212.0,3.6,'11111222,11111222,11111222' 
TCOON,ioos:station:TCOON:068:1,2017-01-01T08:48:00Z,27.2970,-97.4049,0.0,3.1,233.0,3.5,'11111222,11111222,11111222' 
TCOON,ioos:station:TCOON:068:1,2017-01-01T08:54:00Z,27.2970,-97.4049,0.0,2.0,248.0,3.3,'11111222,11111222,11111222' 
TCOON,ioos:station:TCOON:068:1,2017-01-01T09:00:00Z,27.2970,-97.4049,0.0,2.8,246.0,3.2,'11111222,11111222,11111222' 
TCOON,ioos:station:TCOON:068:1,2017-01-01T09:06:00Z,27.2970,-97.4049,0.0,2.1,257.0,3.4,'11111222,11111222,11111222' 
TCOON,ioos:station:TCOON:068:1,2017-01-01T09:12:00Z,27.2970,-97.4049,0.0,1.6,263.0,2.1,'11111222,11111222,11111222' 
TCOON,ioos:station:TCOON:068:1,2017-01-01T09:18:00Z,27.2970,-97.4049,0.0,1.8,241.0,2.1,'11111222,11111222,11111222' 
TCOON,ioos:station:TCOON:068:1,2017-01-01T09:24:00Z,27.2970,-97.4049,0.0,1.8,241.0,2.1,'1111122,1111122,1111122' 
TCOON,ioos:station:TCOON:068:1,2017-01-01T09:30:00Z,27.2970,-97.4049,0.0,1.6,210.0,1.9,'11111222,11111222,11111222' 
TCOON,ioos:station:TCOON:068:1,2017-01-01T09:36:00Z,27.2970,-97.4049,0.0,1.2,199.0,1.7,'11111222,11111222,11111222' 
TCOON,ioos:station:TCOON:068:1,2017-01-01T09:42:00Z,27.2970,-97.4049,0.0,1.6,191.0,1.9,'11111222,11111222,11111222' 
TCOON,ioos:station:TCOON:068:1,2017-01-01T09:48:00Z,27.2970,-97.4049,0.0,2.3,205.0,2.5,'11111222,11111222,11111222' 
TCOON,ioos:station:TCOON:068:1,2017-01-01T09:54:00Z,27.2970,-97.4049,0.0,2.0,181.0,2.6,'11111222,11111222,11111222' 
TCOON,ioos:station:TCOON:068:1,2017-01-01T10:00:00Z,27.2970,-97.4049,0.0,1.9,163.0,2.3,'11111222,11111222,11111222' 
TCOON,ioos:station:TCOON:068:1,2017-01-01T10:06:00Z,27.2970,-97.4049,0.0,1.5,163.0,1.9,'11111222,11111222,11111222' 
TCOON,ioos:station:TCOON:068:1,2017-01-01T10:12:00Z,27.2970,-97.4049,0.0,1.6,180.0,2.0,'11111222,11111222,11111222' 
TCOON,ioos:station:TCOON:068:1,2017-01-01T10:18:00Z,27.2970,-97.4049,0.0,1.6,180.0,2.0,'1111122,1111122,1111122' 
TCOON,ioos:station:TCOON:068:1,2017-01-01T10:24:00Z,27.2970,-97.4049,0.0,2.2,190.0,2.5,'11111222,11111222,11111222' 
TCOON,ioos:station:TCOON:068:1,2017-01-01T10:30:00Z,27.2970,-97.4049,0.0,1.8,178.0,2.5,'11111222,11111222,11111222' 
TCOON,ioos:station:TCOON:068:1,2017-01-01T10:36:00Z,27.2970,-97.4049,0.0,1.5,181.0,1.9,'11111222,11111222,11111222' 
TCOON,ioos:station:TCOON:068:1,2017-01-01T10:42:00Z,27.2970,-97.4049,0.0,1.1,195.0,1.6,'11111222,11111222,11111222' 
TCOON,ioos:station:TCOON:068:1,2017-01-01T10:48:00Z,27.2970,-97.4049,0.0,1.9,232.0,2.2,'11111222,11111222,11111222' 
TCOON,ioos:station:TCOON:068:1,2017-01-01T10:54:00Z,27.2970,-97.4049,0.0,1.5,197.0,1.7,'11111222,11111222,11111222' 
TCOON,ioos:station:TCOON:068:1,2017-01-01T11:00:00Z,27.2970,-97.4049,0.0,1.2,201.0,1.7,'11111222,11111222,11111222' 
TCOON,ioos:station:TCOON:068:1,2017-01-01T11:06:00Z,27.2970,-97.4049,0.0,1.5,252.0,1.7,'11111222,11111222,11111222' 
TCOON,ioos:station:TCOON:068:1,2017-01-01T11:12:00Z,27.2970,-97.4049,0.0,0.1,261.0,1.7,'11111222,11111222,11111222' 
TCOON,ioos:station:TCOON:068:1,2017-01-01T11:18:00Z,27.2970,-97.4049,0.0,0.1,261.0,1.7,'1111122,1111122,1111122' 
TCOON,ioos:station:TCOON:068:1,2017-01-01T11:24:00Z,27.2970,-97.4049,0.0,1.1,266.0,1.4,'11111222,11111222,11111222' 
TCOON,ioos:station:TCOON:068:1,2017-01-01T11:30:00Z,27.2970,-97.4049,0.0,1.1,255.0,1.8,'11111222,11111222,11111222' 
TCOON,ioos:station:TCOON:068:1,2017-01-01T11:36:00Z,27.2970,-97.4049,0.0,0.5,240.0,1.0,'11111222,11111222,11111222' 
TCOON,ioos:station:TCOON:068:1,2017-01-01T11:42:00Z,27.2970,-97.4049,0.0,0.1,240.0,0.4,'11111222,11111222,11111222' 
TCOON,ioos:station:TCOON:068:1,2017-01-01T11:48:00Z,27.2970,-97.4049,0.0,0.4,167.0,0.9,'11111222,11111222,11111222' 
TCOON,ioos:station:TCOON:068:1,2017-01-01T11:54:00Z,27.2970,-97.4049,0.0,1.3,79.0,1.6,'11111222,11111222,11111222' 
TCOON,ioos:station:TCOON:068:1,2017-01-01T12:00:00Z,27.2970,-97.4049,0.0,1.3,111.0,1.7,'11111222,11111222,11111222' 
TCOON,ioos:station:TCOON:068:1,2017-01-01T12:06:00Z,27.2970,-97.4049,0.0,1.8,130.0,2.2,'11111222,11111222,11111222' 
TCOON,ioos:station:TCOON:068:1,2017-01-01T12:12:00Z,27.2970,-97.4049,0.0,1.1,118.0,2.5,'11111222,11111222,11111222' 
TCOON,ioos:station:TCOON:068:1,2017-01-01T12:18:00Z,27.2970,-97.4049,0.0,1.1,118.0,2.5,'1111122,1111122,1111122' 
TCOON,ioos:station:TCOON:068:1,2017-01-01T12:24:00Z,27.2970,-97.4049,0.0,2.6,129.0,3.3,'11111222,11111222,11111222' 
TCOON,ioos:station:TCOON:068:1,2017-01-01T12:30:00Z,27.2970,-97.4049,0.0,3.2,139.0,3.6,'11111222,11111222,11111222' 
TCOON,ioos:station:TCOON:068:1,2017-01-01T12:36:00Z,27.2970,-97.4049,0.0,3.4,135.0,3.8,'11111222,11111222,11111222' 
TCOON,ioos:station:TCOON:068:1,2017-01-01T12:42:00Z,27.2970,-97.4049,0.0,3.1,136.0,4.2,'11111222,11111222,11111222' 
TCOON,ioos:station:TCOON:068:1,2017-01-01T12:48:00Z,27.2970,-97.4049,0.0,2.7,127.0,4.6,'11111222,11111222,11111222' 
TCOON,ioos:station:TCOON:068:1,2017-01-01T12:54:00Z,27.2970,-97.4049,0.0,2.3,119.0,3.9,'11111222,11111222,11111222' 
TCOON,ioos:station:TCOON:068:1,2017-01-01T13:00:00Z,27.2970,-97.4049,0.0,2.8,111.0,3.3,'11111222,11111222,11111222' 
TCOON,ioos:station:TCOON:068:1,2017-01-01T13:06:00Z,27.2970,-97.4049,0.0,5.1,105.0,5.8,'11111222,11111222,11111222' 
TCOON,ioos:station:TCOON:068:1,2017-01-01T13:12:00Z,27.2970,-97.4049,0.0,3.2,116.0,5.5,'11111222,11111222,11111222' 
TCOON,ioos:station:TCOON:068:1,2017-01-01T13:18:00Z,27.2970,-97.4049,0.0,3.2,116.0,5.5,'1111122,1111122,1111122' 
TCOON,ioos:station:TCOON:068:1,2017-01-01T13:24:00Z,27.2970,-97.4049,0.0,4.9,128.0,5.6,'11111222,11111222,11111222' 
TCOON,ioos:station:TCOON:068:1,2017-01-01T13:30:00Z,27.2970,-97.4049,0.0,3.8,127.0,6.2,'11111222,11111222,11111222' 
TCOON,ioos:station:TCOON:068:1,2017-01-01T13:36:00Z,27.2970,-97.4049,0.0,4.2,131.0,5.6,'11111222,11111222,11111222' 
TCOON,ioos:station:TCOON:068:1,2017-01-01T13:42:00Z,27.2970,-97.4049,0.0,3.5,120.0,5.5,'11111222,11111222,11111222' 
TCOON,ioos:station:TCOON:068:1,2017-01-01T13:48:00Z,27.2970,-97.4049,0.0,5.9,123.0,7.1,'11111222,11111222,11111222' 
TCOON,ioos:station:TCOON:068:1,2017-01-01T13:54:00Z,27.2970,-97.4049,0.0,7.6,123.0,9.0,'11111222,11111222,11111222' 
TCOON,ioos:station:TCOON:068:1,2017-01-01T14:00:00Z,27.2970,-97.4049,0.0,10.6,117.0,12.5,'11111222,11111222,11111222' 
TCOON,ioos:station:TCOON:068:1,2017-01-01T14:06:00Z,27.2970,-97.4049,0.0,9.2,117.0,12.0,'11111222,11111222,11111222' 
TCOON,ioos:station:TCOON:068:1,2017-01-01T14:12:00Z,27.2970,-97.4049,0.0,8.5,118.0,10.6,'11111222,11111222,11111222' 
TCOON,ioos:station:TCOON:068:1,2017-01-01T14:18:00Z,27.2970,-97.4049,0.0,7.6,120.0,10.2,'11111222,11111222,11111222' 
TCOON,ioos:station:TCOON:068:1,2017-01-01T14:24:00Z,27.2970,-97.4049,0.0,7.6,120.0,10.2,'1111122,1111122,1111122' 
TCOON,ioos:station:TCOON:068:1,2017-01-01T14:30:00Z,27.2970,-97.4049,0.0,8.0,113.0,9.6,'11111222,11111222,11111222' 
TCOON,ioos:station:TCOON:068:1,2017-01-01T14:36:00Z,27.2970,-97.4049,0.0,7.0,119.0,9.3,'11111222,11111222,11111222' 
TCOON,ioos:station:TCOON:068:1,2017-01-01T14:42:00Z,27.2970,-97.4049,0.0,7.2,119.0,9.3,'11111222,11111222,11111222' 
TCOON,ioos:station:TCOON:068:1,2017-01-01T14:48:00Z,27.2970,-97.4049,0.0,8.0,114.0,9.9,'11111222,11111222,11111222' 
TCOON,ioos:station:TCOON:068:1,2017-01-01T14:54:00Z,27.2970,-97.4049,0.0,7.9,119.0,9.7,'11111222,11111222,11111222' 
TCOON,ioos:station:TCOON:068:1,2017-01-01T15:00:00Z,27.2970,-97.4049,0.0,7.5,120.0,9.3,'11111222,11111222,11111222' 
TCOON,ioos:station:TCOON:068:1,2017-01-01T15:06:00Z,27.2970,-97.4049,0.0,7.4,117.0,9.9,'11111222,11111222,11111222' 
TCOON,ioos:station:TCOON:068:1,2017-01-01T15:12:00Z,27.2970,-97.4049,0.0,6.7,123.0,9.6,'11111222,11111222,11111222' 
TCOON,ioos:station:TCOON:068:1,2017-01-01T15:18:00Z,27.2970,-97.4049,0.0,6.7,123.0,9.6,'1111122,1111122,1111122' 
TCOON,ioos:station:TCOON:068:1,2017-01-01T15:24:00Z,27.2970,-97.4049,0.0,6.6,122.0,9.4,'11111222,11111222,11111222' 
TCOON,ioos:station:TCOON:068:1,2017-01-01T15:30:00Z,27.2970,-97.4049,0.0,8.6,127.0,10.5,'11111222,11111222,11111222' 
TCOON,ioos:station:TCOON:068:1,2017-01-01T15:36:00Z,27.2970,-97.4049,0.0,6.4,119.0,9.5,'11111222,11111222,11111222' 
TCOON,ioos:station:TCOON:068:1,2017-01-01T15:42:00Z,27.2970,-97.4049,0.0,7.3,123.0,9.3,'11111222,11111222,11111222' 
TCOON,ioos:station:TCOON:068:1,2017-01-01T15:48:00Z,27.2970,-97.4049,0.0,7.1,122.0,8.4,'11111222,11111222,11111222' 
TCOON,ioos:station:TCOON:068:1,2017-01-01T15:54:00Z,27.2970,-97.4049,0.0,6.2,122.0,8.6,'11111222,11111222,11111222' 
TCOON,ioos:station:TCOON:068:1,2017-01-01T16:00:00Z,27.2970,-97.4049,0.0,5.6,118.0,8.2,'11111222,11111222,11111222' 
TCOON,ioos:station:TCOON:068:1,2017-01-01T16:06:00Z,27.2970,-97.4049,0.0,5.4,119.0,7.2,'11111222,11111222,11111222' 
TCOON,ioos:station:TCOON:068:1,2017-01-01T16:12:00Z,27.2970,-97.4049,0.0,5.9,111.0,7.4,'11111222,11111222,11111222' 
TCOON,ioos:station:TCOON:068:1,2017-01-01T16:18:00Z,27.2970,-97.4049,0.0,5.9,111.0,7.4,'1111122,1111122,1111122' 
TCOON,ioos:station:TCOON:068:1,2017-01-01T16:24:00Z,27.2970,-97.4049,0.0,5.6,118.0,6.7,'11111222,11111222,11111222' 
TCOON,ioos:station:TCOON:068:1,2017-01-01T16:30:00Z,27.2970,-97.4049,0.0,5.9,127.0,7.2,'11111222,11111222,11111222' 
TCOON,ioos:station:TCOON:068:1,2017-01-01T16:36:00Z,27.2970,-97.4049,0.0,6.2,132.0,7.4,'11111222,11111222,11111222' 
TCOON,ioos:station:TCOON:068:1,2017-01-01T16:42:00Z,27.2970,-97.4049,0.0,6.4,134.0,7.9,'11111222,11111222,11111222' 
TCOON,ioos:station:TCOON:068:1,2017-01-01T16:48:00Z,27.2970,-97.4049,0.0,6.7,136.0,7.8,'11111222,11111222,11111222' 
TCOON,ioos:station:TCOON:068:1,2017-01-01T16:54:00Z,27.2970,-97.4049,0.0,6.0,142.0,7.9,'11111222,11111222,11111222' 
TCOON,ioos:station:TCOON:068:1,2017-01-01T17:00:00Z,27.2970,-97.4049,0.0,3.5,186.0,7.0,'11111222,11111222,11111222' 
TCOON,ioos:station:TCOON:068:1,2017-01-01T17:06:00Z,27.2970,-97.4049,0.0,7.5,266.0,9.0,'11111222,11111222,11111222' 
TCOON,ioos:station:TCOON:068:1,2017-01-01T17:12:00Z,27.2970,-97.4049,0.0,5.4,217.0,8.8,'11111222,11111222,11111222' 
TCOON,ioos:station:TCOON:068:1,2017-01-01T17:18:00Z,27.2970,-97.4049,0.0,5.4,217.0,8.8,'1111122,1111122,1111122' 
TCOON,ioos:station:TCOON:068:1,2017-01-01T17:24:00Z,27.2970,-97.4049,0.0,6.9,175.0,9.5,'11111222,11111222,11111222' 
TCOON,ioos:station:TCOON:068:1,2017-01-01T17:30:00Z,27.2970,-97.4049,0.0,3.5,175.0,5.6,'11111222,11111222,11111222' 
TCOON,ioos:station:TCOON:068:1,2017-01-01T17:36:00Z,27.2970,-97.4049,0.0,3.1,200.0,4.0,'11111222,11111222,11111222' 
TCOON,ioos:station:TCOON:068:1,2017-01-01T17:42:00Z,27.2970,-97.4049,0.0,3.0,190.0,4.4,'11111222,11111222,11111222' 
TCOON,ioos:station:TCOON:068:1,2017-01-01T17:48:00Z,27.2970,-97.4049,0.0,2.6,219.0,2.8,'11111222,11111222,11111222' 
TCOON,ioos:station:TCOON:068:1,2017-01-01T17:54:00Z,27.2970,-97.4049,0.0,2.7,202.0,2.9,'11111222,11111222,11111222' 
TCOON,ioos:station:TCOON:068:1,2017-01-01T18:00:00Z,27.2970,-97.4049,0.0,2.5,209.0,3.0,'11111222,11111222,11111222' 
TCOON,ioos:station:TCOON:068:1,2017-01-01T18:06:00Z,27.2970,-97.4049,0.0,3.6,200.0,3.9,'11111222,11111222,11111222' 
TCOON,ioos:station:TCOON:068:1,2017-01-01T18:12:00Z,27.2970,-97.4049,0.0,3.7,185.0,4.4,'11111222,11111222,11111222' 
TCOON,ioos:station:TCOON:068:1,2017-01-01T18:18:00Z,27.2970,-97.4049,0.0,3.5,186.0,3.8,'11111222,11111222,11111222' 
TCOON,ioos:station:TCOON:068:1,2017-01-01T18:24:00Z,27.2970,-97.4049,0.0,3.5,186.0,3.8,'1111122,1111122,1111122' 
TCOON,ioos:station:TCOON:068:1,2017-01-01T18:30:00Z,27.2970,-97.4049,0.0,2.1,178.0,2.9,'11111222,11111222,11111222' 
TCOON,ioos:station:TCOON:068:1,2017-01-01T18:36:00Z,27.2970,-97.4049,0.0,2.2,174.0,2.5,'11111222,11111222,11111222' 
TCOON,ioos:station:TCOON:068:1,2017-01-01T18:42:00Z,27.2970,-97.4049,0.0,2.3,163.0,2.9,'11111222,11111222,11111222' 
TCOON,ioos:station:TCOON:068:1,2017-01-01T18:48:00Z,27.2970,-97.4049,0.0,2.2,164.0,3.0,'11111222,11111222,11111222' 
TCOON,ioos:station:TCOON:068:1,2017-01-01T18:54:00Z,27.2970,-97.4049,0.0,2.1,168.0,2.5,'11111222,11111222,11111222' 
TCOON,ioos:station:TCOON:068:1,2017-01-01T19:00:00Z,27.2970,-97.4049,0.0,1.9,162.0,2.6,'11111222,11111222,11111222' 
TCOON,ioos:station:TCOON:068:1,2017-01-01T19:06:00Z,27.2970,-97.4049,0.0,1.6,144.0,2.8,'11111222,11111222,11111222' 
TCOON,ioos:station:TCOON:068:1,2017-01-01T19:12:00Z,27.2970,-97.4049,0.0,2.5,144.0,3.1,'11111222,11111222,11111222' 
TCOON,ioos:station:TCOON:068:1,2017-01-01T19:18:00Z,27.2970,-97.4049,0.0,2.5,144.0,3.1,'1111122,1111122,1111122' 
TCOON,ioos:station:TCOON:068:1,2017-01-01T19:24:00Z,27.2970,-97.4049,0.0,3.3,148.0,3.9,'11111222,11111222,11111222' 
TCOON,ioos:station:TCOON:068:1,2017-01-01T19:30:00Z,27.2970,-97.4049,0.0,3.0,153.0,4.2,'11111222,11111222,11111222' 
TCOON,ioos:station:TCOON:068:1,2017-01-01T19:36:00Z,27.2970,-97.4049,0.0,3.6,162.0,3.9,'11111222,11111222,11111222' 
TCOON,ioos:station:TCOON:068:1,2017-01-01T19:42:00Z,27.2970,-97.4049,0.0,3.0,150.0,4.1,'11111222,11111222,11111222' 
TCOON,ioos:station:TCOON:068:1,2017-01-01T19:48:00Z,27.2970,-97.4049,0.0,3.8,156.0,4.2,'11111222,11111222,11111222' 
TCOON,ioos:station:TCOON:068:1,2017-01-01T19:54:00Z,27.2970,-97.4049,0.0,3.2,155.0,4.0,'11111222,11111222,11111222' 
TCOON,ioos:station:TCOON:068:1,2017-01-01T20:00:00Z,27.2970,-97.4049,0.0,2.8,157.0,3.4,'11111222,11111222,11111222' 
TCOON,ioos:station:TCOON:068:1,2017-01-01T20:06:00Z,27.2970,-97.4049,0.0,2.8,162.0,3.6,'11111222,11111222,11111222' 
TCOON,ioos:station:TCOON:068:1,2017-01-01T20:12:00Z,27.2970,-97.4049,0.0,2.7,163.0,3.5,'11111222,11111222,11111222' 
TCOON,ioos:station:TCOON:068:1,2017-01-01T20:18:00Z,27.2970,-97.4049,0.0,2.7,163.0,3.5,'1111122,1111122,1111122' 
TCOON,ioos:station:TCOON:068:1,2017-01-01T20:24:00Z,27.2970,-97.4049,0.0,2.1,158.0,2.9,'11111222,11111222,11111222' 